| time (UTC) | temp F | wind direction | speed MPH | gust MPH | rain 1hr in | rain 24hr in | rain mn in | humidity % | barometer mb |
| 20260905175022 | 66 | 310 | 1.0 | 7.0 | 0.00 | 0.00 | 0.00 | 69 | 1025.3 |
| 20260905174528 | 66 | 282 | 2.0 | 7.0 | 0.00 | 0.00 | 0.00 | 69 | 1025.2 |
| 20260905174029 | 66 | 275 | 3.0 | 8.0 | 0.00 | 0.00 | 0.00 | 69 | 1025.2 |
| 20260905173537 | 66 | 309 | 4.0 | 9.0 | 0.00 | 0.00 | 0.00 | 69 | 1025.1 |
| 20260905173023 | 66 | 292 | 4.0 | 9.0 | 0.00 | 0.00 | 0.00 | 68 | 1025.2 |
| 20260905172529 | 66 | 296 | 5.0 | 8.0 | 0.00 | 0.00 | 0.00 | 68 | 1025.2 |
| 20260905172034 | 66 | 297 | 5.0 | 9.0 | 0.00 | 0.00 | 0.00 | 68 | 1025.1 |
| 20260905171539 | 66 | 271 | 6.0 | 9.0 | 0.00 | 0.00 | 0.00 | 68 | 1025.2 |
| 20260905171024 | 66 | 313 | 3.0 | 9.0 | 0.00 | 0.00 | 0.00 | 68 | 1025.1 |
| 20260905170528 | 66 | 279 | 4.0 | 13.0 | 0.00 | 0.00 | 0.00 | 67 | 1025.1 |
| 20260905170050 | 66 | 327 | 3.0 | 13.0 | 0.00 | 0.00 | 0.00 | 67 | 1025.1 |
| 20260905165535 | 66 | 269 | 7.0 | 12.0 | 0.00 | 0.00 | 0.00 | 65 | 1025.0 |
| 20260905165021 | 67 | 305 | 6.0 | 12.0 | 0.00 | 0.00 | 0.00 | 65 | 1025.0 |
| 20260905164547 | 67 | 260 | 7.0 | 12.0 | 0.00 | 0.00 | 0.00 | 65 | 1025.0 |
| 20260905164032 | 67 | 274 | 5.0 | 16.0 | 0.00 | 0.00 | 0.00 | 65 | 1025.0 |
| 20260905163520 | 67 | 281 | 8.0 | 14.0 | 0.00 | 0.00 | 0.00 | 64 | 1024.9 |
| 20260905163022 | 67 | 273 | 7.0 | 12.0 | 0.00 | 0.00 | 0.00 | 65 | 1025.0 |
| 20260905162533 | 67 | 304 | 6.0 | 12.0 | 0.00 | 0.00 | 0.00 | 65 | 1024.8 |
| 20260905162020 | 67 | 289 | 8.0 | 12.0 | 0.00 | 0.00 | 0.00 | 65 | 1024.8 |
| 20260905161526 | 67 | 298 | 7.0 | 12.0 | 0.00 | 0.00 | 0.00 | 64 | 1024.8 |
| 20260905161024 | 67 | 235 | 6.0 | 13.0 | 0.00 | 0.00 | 0.00 | 64 | 1024.9 |
| 20260905160532 | 67 | 265 | 7.0 | 14.0 | 0.00 | 0.00 | 0.00 | 65 | 1024.9 |
| 20260905160036 | 67 | 279 | 10.0 | 14.0 | 0.00 | 0.00 | 0.00 | 65 | 1024.8 |
| 20260905155524 | 67 | 238 | 6.0 | 12.0 | 0.00 | 0.00 | 0.00 | 65 | 1024.7 |
| 20260905155048 | 67 | 273 | 5.0 | 13.0 | 0.00 | 0.00 | 0.00 | 64 | 1024.6 |
| 20260905154529 | 67 | 263 | 9.0 | 13.0 | 0.00 | 0.00 | 0.00 | 65 | 1024.7 |
| 20260905154034 | 67 | 123 | 5.0 | 15.0 | 0.00 | 0.00 | 0.00 | 65 | 1024.6 |
| 20260905153523 | 67 | 247 | 10.0 | 17.0 | 0.00 | 0.00 | 0.00 | 64 | 1024.4 |
| 20260905153026 | 67 | 245 | 10.0 | 17.0 | 0.00 | 0.00 | 0.00 | 63 | 1024.2 |
| 20260905152529 | 68 | 247 | 9.0 | 16.0 | 0.00 | 0.00 | 0.00 | 63 | 1024.3 |
| 20260905152034 | 68 | 234 | 10.0 | 16.0 | 0.00 | 0.00 | 0.00 | 63 | 1024.3 |
| 20260905151522 | 68 | 276 | 9.0 | 13.0 | 0.00 | 0.00 | 0.00 | 63 | 1024.3 |
| 20260905151026 | 68 | 242 | 6.0 | 15.0 | 0.00 | 0.00 | 0.00 | 63 | 1024.3 |
| 20260905150530 | 68 | 229 | 9.0 | 15.0 | 0.00 | 0.00 | 0.00 | 62 | 1024.3 |
| 20260905150023 | 68 | 271 | 8.0 | 14.0 | 0.00 | 0.00 | 0.00 | 63 | 1024.2 |
| 20260905145531 | 68 | 257 | 9.0 | 14.0 | 0.00 | 0.00 | 0.00 | 63 | 1024.2 |
| 20260905145039 | 68 | 246 | 10.0 | 15.0 | 0.00 | 0.00 | 0.00 | 64 | 1024.2 |
| 20260905144548 | 68 | 294 | 7.0 | 14.0 | 0.00 | 0.00 | 0.00 | 63 | 1024.2 |
| 20260905144023 | 68 | 241 | 10.0 | 15.0 | 0.00 | 0.00 | 0.00 | 63 | 1024.1 |
| 20260905143534 | 68 | 274 | 9.0 | 16.0 | 0.00 | 0.00 | 0.00 | 62 | 1024.1 |
| 20260905143022 | 68 | 264 | 8.0 | 16.0 | 0.00 | 0.00 | 0.00 | 63 | 1024.1 |
| 20260905142548 | 68 | 279 | 8.0 | 16.0 | 0.00 | 0.00 | 0.00 | 63 | 1024.0 |
| 20260905142032 | 68 | 296 | 7.0 | 18.0 | 0.00 | 0.00 | 0.00 | 62 | 1023.9 |
| 20260905141538 | 68 | 264 | 10.0 | 18.0 | 0.00 | 0.00 | 0.00 | 61 | 1023.8 |
| 20260905141043 | 68 | 257 | 10.0 | 17.0 | 0.00 | 0.00 | 0.00 | 62 | 1023.8 |
| 20260905140552 | 68 | 286 | 10.0 | 19.0 | 0.00 | 0.00 | 0.00 | 62 | 1023.8 |
| 20260905140030 | 68 | 274 | 11.0 | 19.0 | 0.00 | 0.00 | 0.00 | 62 | 1023.8 |
| 20260905135533 | 68 | 293 | 9.0 | 18.0 | 0.00 | 0.00 | 0.00 | 62 | 1023.8 |
| 20260905135038 | 68 | 275 | 9.0 | 17.0 | 0.00 | 0.00 | 0.00 | 63 | 1023.8 |
| 20260905134524 | 68 | 292 | 10.0 | 17.0 | 0.00 | 0.00 | 0.00 | 63 | 1023.7 |
| 20260905134050 | 68 | 275 | 10.0 | 18.0 | 0.00 | 0.00 | 0.00 | 63 | 1023.7 |
| 20260905133554 | 68 | 257 | 8.0 | 18.0 | 0.00 | 0.00 | 0.00 | 63 | 1023.7 |
| 20260905133022 | 67 | 289 | 9.0 | 18.0 | 0.00 | 0.00 | 0.00 | 63 | 1023.5 |
| 20260905132530 | 67 | 302 | 10.0 | 17.0 | 0.00 | 0.00 | 0.00 | 63 | 1023.5 |
| 20260905132039 | 68 | 213 | 10.0 | 17.0 | 0.00 | 0.00 | 0.00 | 62 | 1023.5 |
| 20260905131544 | 68 | 273 | 12.0 | 17.0 | 0.00 | 0.00 | 0.00 | 63 | 1023.4 |
| 20260905131029 | 67 | 286 | 7.0 | 16.0 | 0.00 | 0.00 | 0.00 | 65 | 1023.4 |
| 20260905130556 | 67 | 270 | 10.0 | 18.0 | 0.00 | 0.00 | 0.00 | 65 | 1023.4 |
| 20260905130037 | 67 | 275 | 13.0 | 18.0 | 0.00 | 0.00 | 0.00 | 64 | 1023.4 |
| 20260905125526 | 67 | 288 | 10.0 | 17.0 | 0.00 | 0.00 | 0.00 | 65 | 1023.3 |
| 20260905125031 | 67 | 305 | 10.0 | 19.0 | 0.00 | 0.00 | 0.00 | 66 | 1023.2 |
| 20260905124520 | 67 | 295 | 10.0 | 19.0 | 0.00 | 0.00 | 0.00 | 66 | 1023.2 |
| 20260905124029 | 67 | 285 | 11.0 | 17.0 | 0.00 | 0.00 | 0.00 | 67 | 1023.2 |
| 20260905123534 | 67 | 226 | 12.0 | 18.0 | 0.00 | 0.00 | 0.00 | 67 | 1023.2 |
| 20260905123023 | 67 | 251 | 12.0 | 20.0 | 0.00 | 0.00 | 0.00 | 67 | 1023.0 |
| 20260905122524 | 67 | 286 | 10.0 | 18.0 | 0.00 | 0.00 | 0.00 | 68 | 1023.0 |
| 20260905122029 | 67 | 270 | 10.0 | 18.0 | 0.00 | 0.00 | 0.00 | 67 | 1023.0 |
| 20260905121537 | 67 | 292 | 10.0 | 19.0 | 0.00 | 0.00 | 0.00 | 68 | 1022.9 |
| 20260905121024 | 66 | 263 | 12.0 | 20.0 | 0.00 | 0.00 | 0.00 | 68 | 1022.9 |
| 20260905120529 | 67 | 263 | 11.0 | 21.0 | 0.00 | 0.00 | 0.00 | 67 | 1022.8 |
| 20260905120050 | 67 | 259 | 12.0 | 21.0 | 0.00 | 0.00 | 0.00 | 66 | 1022.9 |
| 20260905115535 | 67 | 268 | 10.0 | 20.0 | 0.00 | 0.12 | 0.00 | 67 | 1022.9 |
| 20260905115024 | 67 | 240 | 9.0 | 18.0 | 0.00 | 0.12 | 0.00 | 67 | 1022.8 |
| 20260905114533 | 66 | 286 | 11.0 | 18.0 | 0.00 | 0.12 | 0.00 | 68 | 1022.8 |
| 20260905114038 | 66 | 267 | 8.0 | 20.0 | 0.00 | 0.12 | 0.00 | 69 | 1022.8 |
| 20260905113527 | 66 | 285 | 14.0 | 20.0 | 0.00 | 0.12 | 0.00 | 68 | 1022.7 |
| 20260905113035 | 66 | 278 | 13.0 | 23.0 | 0.00 | 0.12 | 0.00 | 68 | 1022.6 |
| 20260905112523 | 66 | 288 | 12.0 | 23.0 | 0.00 | 0.12 | 0.00 | 68 | 1022.6 |
| 20260905112030 | 66 | 243 | 11.0 | 20.0 | 0.00 | 0.12 | 0.00 | 68 | 1022.6 |
| 20260905111559 | 66 | 254 | 12.0 | 20.0 | 0.00 | 0.12 | 0.00 | 68 | 1022.6 |
| 20260905111025 | 66 | 256 | 11.0 | 20.0 | 0.00 | 0.12 | 0.00 | 69 | 1022.5 |
| 20260905110533 | 66 | 246 | 10.0 | 19.0 | 0.00 | 0.12 | 0.00 | 68 | 1022.4 |
| 20260905110059 | 66 | 248 | 12.0 | 19.0 | 0.00 | 0.12 | 0.00 | 68 | 1022.5 |
| 20260905105542 | 66 | 290 | 9.0 | 19.0 | 0.00 | 0.55 | 0.00 | 68 | 1022.3 |
| 20260905105027 | 66 | 262 | 10.0 | 21.0 | 0.00 | 0.55 | 0.00 | 68 | 1022.2 |
| 20260905104535 | 66 | 267 | 11.0 | 21.0 | 0.00 | 0.55 | 0.00 | 69 | 1022.2 |
| 20260905104023 | 66 | 226 | 12.0 | 20.0 | 0.00 | 0.55 | 0.00 | 69 | 1022.2 |
| 20260905103526 | 66 | 287 | 13.0 | 18.0 | 0.00 | 0.55 | 0.00 | 69 | 1022.1 |
| 20260905103035 | 66 | 253 | 10.0 | 17.0 | 0.00 | 0.55 | 0.00 | 69 | 1022.1 |
| 20260905102526 | 66 | 275 | 11.0 | 18.0 | 0.00 | 0.55 | 0.00 | 69 | 1022.0 |
| 20260905102033 | 66 | 238 | 11.0 | 19.0 | 0.00 | 0.55 | 0.00 | 70 | 1021.9 |
| 20260905101522 | 66 | 282 | 11.0 | 19.0 | 0.00 | 0.55 | 0.00 | 71 | 1021.8 |
| 20260905101027 | 66 | 279 | 11.0 | 20.0 | 0.00 | 0.55 | 0.00 | 70 | 1021.8 |
| 20260905100536 | 66 | 250 | 13.0 | 20.0 | 0.00 | 0.55 | 0.00 | 69 | 1021.6 |
| 20260905100038 | 66 | 282 | 12.0 | 19.0 | 0.00 | 0.55 | 0.00 | 69 | 1021.5 |
| 20260905095547 | 66 | 250 | 10.0 | 20.0 | 0.00 | 0.55 | 0.00 | 70 | 1021.6 |
| 20260905095034 | 66 | 254 | 10.0 | 23.0 | 0.00 | 0.55 | 0.00 | 70 | 1021.5 |
| 20260905094538 | 66 | 221 | 15.0 | 23.0 | 0.00 | 0.55 | 0.00 | 70 | 1021.5 |
| 20260905094025 | 66 | 274 | 12.0 | 21.0 | 0.00 | 0.55 | 0.00 | 70 | 1021.4 |
| 20260905093559 | 66 | 268 | 11.0 | 21.0 | 0.00 | 0.55 | 0.00 | 70 | 1021.4 |
| 20260905093022 | 66 | 257 | 12.0 | 23.0 | 0.00 | 0.55 | 0.00 | 70 | 1021.3 |
| 20260905092525 | 66 | 243 | 10.0 | 23.0 | 0.00 | 0.55 | 0.00 | 71 | 1021.2 |
| 20260905092033 | 66 | 254 | 10.0 | 21.0 | 0.00 | 0.55 | 0.00 | 72 | 1021.1 |
| 20260905091520 | 65 | 259 | 13.0 | 21.0 | 0.00 | 0.55 | 0.00 | 71 | 1021.2 |
| 20260905091025 | 65 | 265 | 13.0 | 21.0 | 0.00 | 0.55 | 0.00 | 71 | 1021.0 |
| 20260905090534 | 65 | 252 | 12.0 | 20.0 | 0.00 | 0.55 | 0.00 | 71 | 1021.0 |
| 20260905090032 | 65 | 240 | 12.0 | 20.0 | 0.00 | 0.55 | 0.00 | 71 | 1020.9 |
| 20260905085521 | 65 | 259 | 12.0 | 23.0 | 0.00 | 0.55 | 0.00 | 71 | 1020.8 |
| 20260905085025 | 65 | 253 | 12.0 | 23.0 | 0.00 | 0.55 | 0.00 | 71 | 1020.8 |
| 20260905084534 | 65 | 250 | 10.0 | 18.0 | 0.00 | 0.55 | 0.00 | 71 | 1020.7 |
| 20260905084022 | 65 | 292 | 12.0 | 21.0 | 0.00 | 0.55 | 0.00 | 72 | 1020.7 |
| 20260905083526 | 65 | 209 | 13.0 | 21.0 | 0.00 | 0.55 | 0.00 | 72 | 1020.5 |
| 20260905083034 | 65 | 285 | 14.0 | 20.0 | 0.00 | 0.55 | 0.00 | 73 | 1020.5 |
| 20260905082543 | 65 | 246 | 12.0 | 20.0 | 0.00 | 0.55 | 0.00 | 73 | 1020.5 |
| 20260905082031 | 65 | 284 | 10.0 | 19.0 | 0.00 | 0.55 | 0.00 | 73 | 1020.3 |
| 20260905081520 | 65 | 275 | 11.0 | 19.0 | 0.00 | 0.55 | 0.00 | 74 | 1020.2 |
| 20260905081044 | 65 | 288 | 12.0 | 19.0 | 0.00 | 0.55 | 0.00 | 74 | 1020.2 |
| 20260905080552 | 65 | 240 | 13.0 | 20.0 | 0.00 | 0.55 | 0.00 | 75 | 1019.9 |
| 20260905080033 | 65 | 259 | 11.0 | 20.0 | 0.00 | 0.55 | 0.00 | 76 | 1019.8 |
| 20260905075522 | 64 | 261 | 11.0 | 20.0 | 0.00 | 0.55 | 0.00 | 76 | 1019.8 |
| 20260905075022 | 64 | 278 | 12.0 | 20.0 | 0.00 | 0.55 | 0.00 | 77 | 1019.7 |
| 20260905074529 | 64 | 251 | 9.0 | 19.0 | 0.00 | 0.55 | 0.00 | 77 | 1019.6 |
| 20260905074038 | 64 | 306 | 12.0 | 18.0 | 0.00 | 0.55 | 0.00 | 77 | 1019.6 |
| 20260905073526 | 64 | 267 | 11.0 | 17.0 | 0.00 | 0.55 | 0.00 | 77 | 1019.5 |
| 20260905073030 | 64 | 256 | 12.0 | 20.0 | 0.00 | 0.55 | 0.00 | 77 | 1019.5 |
| 20260905072539 | 64 | 244 | 10.0 | 20.0 | 0.00 | 0.55 | 0.00 | 77 | 1019.5 |
| 20260905072044 | 64 | 275 | 13.0 | 20.0 | 0.00 | 0.55 | 0.00 | 77 | 1019.4 |
| 20260905071559 | 64 | 284 | 13.0 | 20.0 | 0.00 | 0.55 | 0.00 | 77 | 1019.4 |
| 20260905071027 | 64 | 288 | 13.0 | 20.0 | 0.00 | 0.55 | 0.00 | 77 | 1019.3 |
| 20260905070550 | 64 | 265 | 13.0 | 19.0 | 0.00 | 0.55 | 0.00 | 76 | 1019.3 |
| 20260905070029 | 63 | 245 | 12.0 | 21.0 | 0.00 | 0.55 | 0.00 | 77 | 1019.2 |
| 20260905065526 | 63 | 286 | 10.0 | 19.0 | 0.00 | 0.55 | 0.00 | 77 | 1019.1 |
| 20260905065032 | 64 | 215 | 12.0 | 19.0 | 0.00 | 0.55 | 0.00 | 78 | 1019.2 |
| 20260905064538 | 64 | 247 | 11.0 | 18.0 | 0.00 | 0.55 | 0.00 | 78 | 1019.2 |
| 20260905064023 | 64 | 265 | 11.0 | 20.0 | 0.00 | 0.55 | 0.00 | 78 | 1019.0 |
| 20260905063530 | 64 | 277 | 12.0 | 20.0 | 0.00 | 0.55 | 0.00 | 78 | 1019.0 |
| 20260905063035 | 63 | 263 | 12.0 | 19.0 | 0.00 | 0.55 | 0.00 | 78 | 1019.0 |
| 20260905062522 | 63 | 270 | 11.0 | 19.0 | 0.00 | 0.55 | 0.00 | 78 | 1018.9 |
| 20260905062023 | 64 | 275 | 11.0 | 20.0 | 0.00 | 0.55 | 0.00 | 78 | 1018.8 |
| 20260905061549 | 63 | 263 | 11.0 | 25.0 | 0.00 | 0.55 | 0.00 | 78 | 1018.8 |
| 20260905061033 | 64 | 257 | 10.0 | 25.0 | 0.00 | 0.55 | 0.00 | 79 | 1018.7 |
| 20260905060519 | 64 | 269 | 12.0 | 24.0 | 0.00 | 0.55 | 0.00 | 79 | 1018.7 |
| 20260905060037 | 64 | 246 | 12.0 | 24.0 | 0.00 | 0.55 | 0.00 | 78 | 1018.6 |
| 20260905055522 | 64 | 246 | 12.0 | 22.0 | 0.00 | 0.55 | 0.00 | 79 | 1018.4 |
| 20260905055029 | 64 | 243 | 12.0 | 22.0 | 0.00 | 0.55 | 0.00 | 78 | 1018.5 |
| 20260905054537 | 64 | 263 | 12.0 | 21.0 | 0.00 | 0.55 | 0.00 | 78 | 1018.5 |
| 20260905054025 | 64 | 281 | 11.0 | 18.0 | 0.00 | 0.55 | 0.00 | 78 | 1018.4 |
| 20260905053528 | 63 | 273 | 11.0 | 23.0 | 0.00 | 0.55 | 0.00 | 77 | 1018.3 |
| 20260905053035 | 63 | 248 | 10.0 | 23.0 | 0.00 | 0.55 | 0.00 | 77 | 1018.2 |
| 20260905052524 | 63 | 252 | 13.0 | 19.0 | 0.00 | 0.55 | 0.00 | 78 | 1018.2 |
| 20260905052032 | 63 | 223 | 9.0 | 17.0 | 0.00 | 0.55 | 0.00 | 78 | 1018.2 |
| 20260905051522 | 63 | 288 | 12.0 | 17.0 | 0.00 | 0.55 | 0.00 | 78 | 1018.1 |
| 20260905051042 | 63 | 279 | 11.0 | 18.0 | 0.00 | 0.55 | 0.00 | 78 | 1018.0 |
| 20260905050529 | 64 | 288 | 8.0 | 20.0 | 0.00 | 0.55 | 0.00 | 78 | 1017.9 |
| 20260905050027 | 64 | 250 | 9.0 | 20.0 | 0.00 | 0.55 | 0.00 | 78 | 1017.9 |
| 20260905045546 | 64 | 286 | 12.0 | 18.0 | 0.00 | 0.55 | 0.00 | 78 | 1017.8 |
| 20260905045058 | 64 | 303 | 10.0 | 18.0 | 0.00 | 0.55 | 0.00 | 78 | 1017.7 |
| 20260905044522 | 63 | 288 | 10.0 | 18.0 | 0.00 | 0.55 | 0.00 | 78 | 1017.7 |
| 20260905044028 | 64 | 238 | 10.0 | 17.0 | 0.00 | 0.55 | 0.00 | 78 | 1017.7 |
| 20260905043537 | 64 | 271 | 10.0 | 17.0 | 0.00 | 0.55 | 0.00 | 78 | 1017.7 |
| 20260905043041 | 64 | 237 | 9.0 | 17.0 | 0.00 | 0.55 | 0.00 | 78 | 1017.6 |
| 20260905042528 | 64 | 250 | 9.0 | 19.0 | 0.00 | 0.55 | 0.00 | 78 | 1017.6 |
| 20260905042100 | 64 | 265 | 12.0 | 19.0 | 0.00 | 0.55 | 0.00 | 78 | 1017.5 |
| 20260905041529 | 64 | 278 | 13.0 | 17.0 | 0.00 | 0.55 | 0.00 | 78 | 1017.4 |
| 20260905041033 | 64 | 235 | 8.0 | 18.0 | 0.00 | 0.55 | 0.00 | 78 | 1017.5 |
| 20260905040522 | 64 | 275 | 11.0 | 18.0 | 0.00 | 0.55 | 0.00 | 78 | 1017.5 |
| 20260905040022 | 64 | 275 | 13.0 | 17.0 | 0.00 | 0.55 | 0.00 | 78 | 1017.4 |
| 20260905035530 | 64 | 267 | 11.0 | 21.0 | 0.00 | 0.55 | 0.00 | 78 | 1017.4 |
| 20260905035037 | 64 | 249 | 12.0 | 21.0 | 0.00 | 0.55 | 0.00 | 78 | 1017.3 |
| 20260905034520 | 64 | 267 | 10.0 | 20.0 | 0.00 | 0.55 | 0.00 | 78 | 1017.3 |
| 20260905034029 | 64 | 248 | 10.0 | 20.0 | 0.00 | 0.55 | 0.00 | 78 | 1017.3 |
| 20260905033539 | 64 | 273 | 9.0 | 15.0 | 0.00 | 0.55 | 0.00 | 77 | 1017.3 |
| 20260905033025 | 64 | 246 | 7.0 | 15.0 | 0.00 | 0.55 | 0.00 | 77 | 1017.3 |
| 20260905032530 | 64 | 269 | 8.0 | 17.0 | 0.00 | 0.55 | 0.00 | 77 | 1017.3 |
| 20260905032034 | 64 | 242 | 10.0 | 17.0 | 0.00 | 0.55 | 0.00 | 77 | 1017.2 |
| 20260905031540 | 64 | 294 | 10.0 | 21.0 | 0.00 | 0.55 | 0.00 | 77 | 1017.2 |
| 20260905031026 | 64 | 250 | 13.0 | 21.0 | 0.00 | 0.55 | 0.00 | 77 | 1017.1 |
| 20260905030559 | 64 | 262 | 12.0 | 19.0 | 0.00 | 0.55 | 0.00 | 76 | 1017.2 |
| 20260905030020 | 64 | 258 | 8.0 | 18.0 | 0.00 | 0.55 | 0.00 | 76 | 1017.2 |
| 20260905025546 | 64 | 255 | 10.0 | 17.0 | 0.00 | 0.55 | 0.00 | 76 | 1017.1 |
| 20260905025032 | 64 | 257 | 11.0 | 17.0 | 0.00 | 0.55 | 0.00 | 76 | 1017.0 |
| 20260905024520 | 64 | 253 | 9.0 | 17.0 | 0.00 | 0.55 | 0.00 | 76 | 1016.9 |
| 20260905024022 | 64 | 277 | 9.0 | 15.0 | 0.00 | 0.55 | 0.00 | 75 | 1016.9 |
| 20260905023531 | 64 | 294 | 9.0 | 17.0 | 0.00 | 0.55 | 0.00 | 75 | 1017.0 |
| 20260905023039 | 64 | 227 | 11.0 | 17.0 | 0.00 | 0.55 | 0.00 | 75 | 1016.9 |
| 20260905022525 | 64 | 290 | 10.0 | 17.0 | 0.00 | 0.55 | 0.00 | 75 | 1017.0 |
| 20260905022034 | 64 | 281 | 11.0 | 18.0 | 0.00 | 0.55 | 0.00 | 75 | 1017.0 |
| 20260905021519 | 64 | 263 | 8.0 | 16.0 | 0.00 | 0.55 | 0.00 | 74 | 1016.9 |
| 20260905021047 | 64 | 258 | 10.0 | 16.0 | 0.00 | 0.55 | 0.00 | 74 | 1016.8 |
| 20260905020553 | 64 | 302 | 10.0 | 18.0 | 0.00 | 0.55 | 0.00 | 73 | 1016.8 |
| 20260905020059 | 64 | 255 | 8.0 | 18.0 | 0.00 | 0.55 | 0.00 | 73 | 1016.7 |
| 20260905015520 | 64 | 243 | 10.0 | 18.0 | 0.00 | 0.55 | 0.00 | 73 | 1016.8 |
| 20260905015024 | 64 | 252 | 9.0 | 18.0 | 0.00 | 0.55 | 0.00 | 73 | 1016.8 |
| 20260905014532 | 64 | 249 | 11.0 | 17.0 | 0.00 | 0.55 | 0.00 | 72 | 1016.7 |
| 20260905014039 | 64 | 202 | 9.0 | 20.0 | 0.00 | 0.55 | 0.00 | 71 | 1016.8 |
| 20260905013525 | 64 | 284 | 11.0 | 20.0 | 0.00 | 0.55 | 0.00 | 71 | 1016.8 |
| 20260905013045 | 64 | 259 | 9.0 | 17.0 | 0.00 | 0.55 | 0.00 | 71 | 1016.7 |
| 20260905012525 | 64 | 288 | 10.0 | 19.0 | 0.00 | 0.55 | 0.00 | 71 | 1016.6 |
| 20260905012029 | 64 | 267 | 12.0 | 19.0 | 0.00 | 0.55 | 0.00 | 71 | 1016.6 |
| 20260905011539 | 64 | 267 | 12.0 | 17.0 | 0.00 | 0.55 | 0.00 | 71 | 1016.7 |
| 20260905011020 | 64 | 267 | 9.0 | 18.0 | 0.00 | 0.55 | 0.00 | 71 | 1016.6 |
| 20260905010548 | 65 | 283 | 9.0 | 17.0 | 0.00 | 0.55 | 0.00 | 71 | 1016.6 |
| 20260905010049 | 65 | 277 | 11.0 | 18.0 | 0.00 | 0.55 | 0.00 | 70 | 1016.5 |
| 20260905005536 | 65 | 267 | 11.0 | 17.0 | 0.00 | 0.55 | 0.00 | 71 | 1016.5 |
| 20260905005039 | 65 | 294 | 11.0 | 16.0 | 0.00 | 0.55 | 0.00 | 72 | 1016.5 |
| 20260905004543 | 65 | 257 | 10.0 | 16.0 | 0.00 | 0.55 | 0.00 | 72 | 1016.6 |
| 20260905004025 | 65 | 270 | 9.0 | 18.0 | 0.00 | 0.55 | 0.00 | 72 | 1016.6 |
| 20260905003530 | 65 | 271 | 11.0 | 18.0 | 0.00 | 0.55 | 0.00 | 72 | 1016.6 |
| 20260905003055 | 65 | 271 | 11.0 | 18.0 | 0.00 | 0.55 | 0.00 | 71 | 1016.6 |
| 20260905002520 | 65 | 255 | 10.0 | 16.0 | 0.00 | 0.55 | 0.00 | 72 | 1016.6 |
| 20260905002026 | 65 | 286 | 12.0 | 17.0 | 0.00 | 0.55 | 0.00 | 71 | 1016.6 |
| 20260905001551 | 65 | 259 | 11.0 | 18.0 | 0.00 | 0.55 | 0.00 | 70 | 1016.5 |
| 20260905001034 | 65 | 254 | 11.0 | 19.0 | 0.00 | 0.55 | 0.00 | 70 | 1016.5 |
| 20260905000522 | 65 | 261 | 11.0 | 19.0 | 0.00 | 0.55 | 0.00 | 70 | 1016.5 |
| 20260905000022 | 65 | 273 | 8.0 | 20.0 | 0.00 | 0.55 | 0.00 | 71 | 1016.4 |
| 20260904235548 | 65 | 238 | 11.0 | 22.0 | 0.00 | 0.55 | 0.00 | 71 | 1016.4 |
| 20260904235029 | 65 | 269 | 11.0 | 18.0 | 0.00 | 0.55 | 0.00 | 70 | 1016.4 |
| 20260904234600 | 65 | 262 | 12.0 | 22.0 | 0.00 | 0.55 | 0.00 | 70 | 1016.4 |
| 20260904234022 | 65 | 266 | 11.0 | 22.0 | 0.00 | 0.55 | 0.00 | 70 | 1016.4 |
| 20260904233527 | 65 | 234 | 11.0 | 20.0 | 0.00 | 0.55 | 0.00 | 70 | 1016.3 |
| 20260904233048 | 65 | 274 | 12.0 | 20.0 | 0.00 | 0.55 | 0.00 | 70 | 1016.3 |
| 20260904232536 | 65 | 238 | 12.0 | 20.0 | 0.00 | 0.55 | 0.00 | 70 | 1016.3 |
| 20260904232021 | 65 | 246 | 14.0 | 20.0 | 0.00 | 0.55 | 0.00 | 71 | 1016.1 |
| 20260904231526 | 65 | 249 | 9.0 | 19.0 | 0.00 | 0.55 | 0.00 | 71 | 1016.2 |
| 20260904231030 | 66 | 256 | 10.0 | 20.0 | 0.00 | 0.55 | 0.00 | 70 | 1016.2 |
| 20260904230533 | 66 | 225 | 10.0 | 18.0 | 0.00 | 0.55 | 0.00 | 70 | 1016.2 |
| 20260904230032 | 66 | 256 | 10.0 | 18.0 | 0.00 | 0.55 | 0.00 | 70 | 1016.2 |
| 20260904225540 | 66 | 260 | 11.0 | 16.0 | 0.00 | 0.55 | 0.00 | 70 | 1016.1 |
| 20260904225022 | 66 | 263 | 8.0 | 17.0 | 0.00 | 0.55 | 0.00 | 71 | 1016.2 |
| 20260904224526 | 66 | 249 | 11.0 | 19.0 | 0.00 | 0.55 | 0.00 | 70 | 1016.1 |
| 20260904224034 | 66 | 267 | 12.0 | 19.0 | 0.00 | 0.55 | 0.00 | 69 | 1016.1 |
| 20260904223524 | 66 | 267 | 9.0 | 18.0 | 0.00 | 0.55 | 0.00 | 69 | 1016.2 |
| 20260904223029 | 66 | 257 | 9.0 | 18.0 | 0.00 | 0.55 | 0.00 | 69 | 1016.0 |
| 20260904222537 | 66 | 290 | 12.0 | 17.0 | 0.00 | 0.55 | 0.00 | 69 | 1016.1 |
| 20260904222020 | 66 | 292 | 10.0 | 20.0 | 0.00 | 0.55 | 0.00 | 69 | 1016.1 |
| 20260904221528 | 66 | 256 | 11.0 | 20.0 | 0.00 | 0.55 | 0.00 | 69 | 1016.1 |
| 20260904221037 | 66 | 232 | 8.0 | 17.0 | 0.00 | 0.55 | 0.00 | 68 | 1016.0 |
| 20260904220543 | 66 | 274 | 11.0 | 19.0 | 0.00 | 0.55 | 0.00 | 67 | 1016.0 |
| 20260904220028 | 66 | 268 | 13.0 | 20.0 | 0.00 | 0.55 | 0.00 | 69 | 1015.9 |
| 20260904215530 | 66 | 265 | 13.0 | 20.0 | 0.00 | 0.55 | 0.11 | 68 | 1015.9 |
| 20260904215035 | 66 | 255 | 12.0 | 19.0 | 0.00 | 0.55 | 0.11 | 68 | 1015.9 |
| 20260904214542 | 66 | 257 | 11.0 | 20.0 | 0.00 | 0.55 | 0.11 | 68 | 1015.9 |
| 20260904214022 | 66 | 221 | 12.0 | 20.0 | 0.00 | 0.55 | 0.11 | 68 | 1015.9 |
| 20260904213557 | 66 | 265 | 11.0 | 20.0 | 0.00 | 0.55 | 0.11 | 68 | 1015.9 |
| 20260904213021 | 66 | 266 | 12.0 | 19.0 | 0.00 | 0.55 | 0.11 | 68 | 1015.8 |
| 20260904212527 | 66 | 306 | 12.0 | 20.0 | 0.00 | 0.55 | 0.11 | 68 | 1015.8 |
| 20260904212029 | 66 | 271 | 11.0 | 23.0 | 0.00 | 0.55 | 0.11 | 67 | 1015.7 |
| 20260904211538 | 66 | 256 | 13.0 | 23.0 | 0.00 | 0.55 | 0.11 | 67 | 1015.6 |
| 20260904211024 | 66 | 273 | 13.0 | 23.0 | 0.00 | 0.55 | 0.11 | 67 | 1015.6 |
| 20260904210529 | 66 | 286 | 11.0 | 23.0 | 0.00 | 0.55 | 0.11 | 67 | 1015.7 |
| 20260904210031 | 66 | 267 | 12.0 | 21.0 | 0.00 | 0.55 | 0.11 | 68 | 1015.6 |
| 20260904205537 | 66 | 275 | 12.0 | 19.0 | 0.00 | 0.55 | 0.11 | 68 | 1015.5 |
| 20260904205024 | 66 | 225 | 11.0 | 21.0 | 0.00 | 0.55 | 0.11 | 67 | 1015.5 |
| 20260904204532 | 66 | 242 | 10.0 | 21.0 | 0.00 | 0.55 | 0.11 | 68 | 1015.5 |
| 20260904204019 | 66 | 272 | 10.0 | 21.0 | 0.00 | 0.55 | 0.11 | 69 | 1015.5 |
| 20260904203529 | 66 | 240 | 11.0 | 21.0 | 0.00 | 0.55 | 0.11 | 69 | 1015.5 |
| 20260904203056 | 66 | 275 | 11.0 | 20.0 | 0.00 | 0.55 | 0.11 | 69 | 1015.3 |
| 20260904202523 | 66 | 241 | 14.0 | 20.0 | 0.00 | 0.55 | 0.11 | 68 | 1015.3 |
| 20260904202030 | 66 | 263 | 12.0 | 19.0 | 0.00 | 0.55 | 0.11 | 69 | 1015.3 |
| 20260904201519 | 66 | 268 | 12.0 | 21.0 | 0.00 | 0.55 | 0.11 | 67 | 1015.3 |
| 20260904201025 | 66 | 234 | 13.0 | 21.0 | 0.00 | 0.55 | 0.11 | 67 | 1015.2 |
| 20260904200530 | 66 | 298 | 11.0 | 24.0 | 0.00 | 0.55 | 0.11 | 67 | 1015.3 |
| 20260904200032 | 66 | 207 | 12.0 | 24.0 | 0.00 | 0.55 | 0.11 | 68 | 1015.3 |
| 20260904195522 | 66 | 259 | 10.0 | 19.0 | 0.00 | 0.55 | 0.11 | 67 | 1015.3 |
| 20260904195030 | 66 | 266 | 10.0 | 21.0 | 0.00 | 0.55 | 0.11 | 67 | 1015.2 |
| 20260904194533 | 66 | 261 | 12.0 | 21.0 | 0.00 | 0.55 | 0.11 | 68 | 1015.1 |
| 20260904194019 | 66 | 266 | 10.0 | 18.0 | 0.00 | 0.55 | 0.11 | 67 | 1015.1 |
| 20260904193527 | 66 | 274 | 12.0 | 18.0 | 0.00 | 0.55 | 0.11 | 66 | 1014.9 |
| 20260904193055 | 66 | 248 | 12.0 | 18.0 | 0.00 | 0.55 | 0.11 | 66 | 1014.9 |
| 20260904192540 | 66 | 263 | 10.0 | 19.0 | 0.00 | 0.55 | 0.11 | 67 | 1014.9 |
| 20260904192024 | 66 | 234 | 13.0 | 19.0 | 0.00 | 0.55 | 0.11 | 66 | 1014.8 |
| 20260904191030 | 66 | 286 | 12.0 | 20.0 | 0.00 | 0.55 | 0.11 | 66 | 1014.6 |
| 20260904190045 | 66 | 270 | 13.0 | 24.0 | 0.00 | 0.55 | 0.11 | 69 | 1014.6 |
| 20260904185534 | 66 | 266 | 11.0 | 20.0 | 0.00 | 0.55 | 0.11 | 69 | 1014.4 |
| 20260904185042 | 66 | 223 | 8.0 | 19.0 | 0.00 | 0.55 | 0.11 | 69 | 1014.5 |
| 20260904184524 | 66 | 227 | 11.0 | 19.0 | 0.00 | 0.55 | 0.11 | 69 | 1014.4 |
| 20260904184143 | 66 | 284 | 9.0 | 21.0 | 0.00 | 0.55 | 0.11 | 68 | 1014.4 |
| 20260904183534 | 66 | 259 | 11.0 | 21.0 | 0.00 | 0.55 | 0.11 | 68 | 1014.2 |
| 20260904183023 | 66 | 275 | 11.0 | 18.0 | 0.00 | 0.55 | 0.11 | 69 | 1014.3 |
| 20260904182530 | 66 | 248 | 10.0 | 23.0 | 0.00 | 0.55 | 0.11 | 69 | 1014.3 |
| 20260904182031 | 66 | 258 | 11.0 | 17.0 | 0.00 | 0.55 | 0.11 | 70 | 1014.2 |
| 20260904181522 | 66 | 248 | 11.0 | 20.0 | 0.00 | 0.55 | 0.11 | 71 | 1014.1 |
| 20260904181029 | 67 | 267 | 11.0 | 20.0 | 0.00 | 0.55 | 0.11 | 71 | 1014.1 |
| 20260904180530 | 67 | 246 | 11.0 | 23.0 | 0.00 | 0.55 | 0.11 | 70 | 1014.0 |
| 20260904180056 | 67 | 236 | 11.0 | 23.0 | 0.00 | 0.55 | 0.11 | 70 | 1014.0 |
| 20260904175521 | 67 | 248 | 11.0 | 19.0 | 0.00 | 0.55 | 0.11 | 70 | 1014.1 |